Regional Weather Roundup
Issued by NWS Grand Forks, ND

Home | Current Version | Previous Version | Graphics & Text | Print | Product List | Glossary On
Versions: 1 2 3 4 5 6 7 8 9 10 11 12 13 14 15 16 17 18 19 20 21 22 23 24 25 26 27 28 29 30 31 32 33 34 35 36 37 38 39 40 41 42 43 44 45 46 47 48 49 50
000
ASUS43 KFGF 041710
RWRFGF
PRAIRIE TO PINES  WEATHER ROUNDUP
NATIONAL WEATHER SERVICE EASTERN NORTH DAKOTA/GRAND FORKS ND
1100 AM CST WED MAR 04 2015

 **SATELLITE DATA USED TO AUGMENT SKY COVER AT AUTOMATED STATIONS**
 *****  WEATHER ACROSS EASTERN NORTH DAKOTA  *****

CITY           SKY/WX    TMP DP  RH WIND       PRES   REMARKS
GRAND FORKS    MOSUNNY   -1 -12  59 NW15G23   30.29R WCI -21
GRAND FRKS AFB SUNNY     -2 -15  52 N18G24    30.28R WCI -23
GRAND FRKS NWS   N/A      1 N/A N/A N10         N/A  WCI -14
DEVILS LAKE    SUNNY     -6 -17  59 NW18      30.26R WCI -29
FARGO          CLOUDY     0 -11  59 NW15      30.30R WCI -19
WAHPETON ARPT  PTSUNNY    3 -11  51 NW18G30   30.28R WCI -17
$$

 ***** WEATHER ACROSS CENTRAL AND WESTERN NORTH DAKOTA  *****

CITY           SKY/WX    TMP DP  RH WIND       PRES   REMARKS
BISMARCK       PTSUNNY   -1 -15  51 NW20G29   30.33R WCI -23
MINOT          SUNNY     -6 -17  59 W20       30.31R WCI -30
JAMESTOWN      CLOUDY    -4 -14  62 NW20G28   30.27R WCI -27
MINOT AFB      SUNNY     -8 -17  65 NW18      30.30R WCI -31
GARRISON         N/A     -7 -16  65 NW21      30.30R WCI -32
WILLISTON        N/A    N/A N/A N/A MISG      30.36R
DICKINSON      CLOUDY     1 -10  60 NW18G29   30.23R WCI -20
HETTINGER      PTSUNNY    3 -10  54 NW21      30.24R WCI -18
$$

 *****  OTHER AIRPORT OBSERVATIONS IN OUR AREA  *****

CITY           SKY/WX    TMP DP  RH WIND       PRES   REMARKS
WALHALLA         N/A     -4 -11  71 NW17      30.28R WCI -26
GRAFTON AIRPOR NOT AVBL
VALLEY CITY AR FLURRIES  -2 -11  65 NW17G23   30.26R WCI -24
CANDO          PTSUNNY   -6 -15  65 NW16      30.27R WCI -28
CAVALIER APRT  PTSUNNY   -2 -11  65 NW15G21   30.28R HAZE    WCI -22
GWINNER        PTSUNNY    3 -11  51 NW20G26   30.29R WCI -18
SHEYENNE NWR     N/A      1 -15  46 NW15      29.95S WCI -18
ROLLA          FAIR      -8 -17  65 NW18G24   30.22R WCI -31
 ***** THE ABOVE OBSERVATIONS ARE NON NWS ARE NOT QUALITY
       CONTROLLED AND MAY MIS-REPORT RAIN FOR SNOW...
$$

  *****  WEATHER ACROSS NORTHERN MINNESOTA  *****

CITY           SKY/WX    TMP DP  RH WIND       PRES   REMARKS
FLAG ISLAND    MOSUNNY   -6 -15  65 NW17      30.12R WCI -28
WARROAD        MOSUNNY   -6 -15  65 W12       30.16R HAZE    WCI -24
ROSEAU         SUNNY     -6 -15  65 W13       30.18R WCI -25
HALLOCK        NOT AVBL
THF RVR FALLS  CLOUDY    -6 -17  59 NW17      30.21R WCI -28
BAUDETTE       MOSUNNY   -6 -15  65 NW13      30.12R WCI -25
WASKISH        SUNNY     -2 -13  60 W12G17    30.15R WCI -20
CROOKSTON      SUNNY     -2  -9  71 NW15G23   30.28R WCI -22
$$
  *****  WEATHER ACROSS CENTRAL AND WEST MINNESOTA  *****

CITY           SKY/WX    TMP DP  RH WIND       PRES   REMARKS
FOSSTON        PTSUNNY   -4 -15  59 NW14G22   30.21R WCI -24
BEMIDJI        SUNNY     -5 -15  61 W16G22    30.15R WCI -27
PARK RAPIDS    CLOUDY    -2 -12  62 NW18      30.15R WCI -24
ELBOW LAKE     CLOUDY     0  -9  65 NW20G25   30.24R WCI -21
WADENA         SUNNY     -2 -13  60 NW17      30.18R WCI -24
DETROIT LAKES  MOSUNNY   -2 -11  65 N16       30.22R WCI -23
MOORHEAD       CLOUDY     0  -8  71 NW14      30.29R HAZE    WCI -19
FERGUS FALLS   SUNNY      1 -11  55 NW20      30.28R WCI -20
MORRIS MN      MOSUNNY    5  -6  61 NW18      30.25R WCI -15
STAPLES        CLOUDY     0 -11  60 NW20      30.17R WCI -22
$$
  *****  WEATHER ELSEWHERE ACROSS MINNESOTA  *****

CITY           SKY/WX    TMP DP  RH WIND       PRES   REMARKS
DULUTH         CLOUDY     0 -13  54 W16G25    30.04S WCI -20
INTRNTL FALLS  CLOUDY    -6 -16  61 NW17      30.10R HAZE    WCI -28
ELY            MOSUNNY   -4 -18  50 W13G26    30.02R WCI -23
CLOQUET        MOSUNNY    1 -13  51 W14G20    30.07S WCI -17
WHEATON        MOSUNNY    1  -9  60 NW16      30.30R WCI -18
BRAINERD       CLOUDY     1 -11  57 NW15      30.16R WCI -18
HIBBING        CLOUDY    -2 -16  51 NW20      30.07R WCI -24
ALEXANDRIA     MOSUNNY    1 -10  60 NW18G25   30.20R WCI -20
SAINT CLOUD    SUNNY      4  -8  57 W20       30.20R WCI -17
MINNEAPOLIS    MOSUNNY    8  -6  52 W12       30.24R WCI  -7
$$

  *****  WEATHER ACROSS SOUTH DAKOTA  *****

CITY           SKY/WX    TMP DP  RH WIND       PRES   REMARKS
SIOUX FALLS    MOSUNNY   12   1  61 NW23G30   30.26R WCI  -7
BROOKINGS      NOT AVBL
WATERTOWN      CLOUDY     3  -8  60 NW20      30.23R WCI -18
HURON          SUNNY      7  -6  55 N22G29    30.33R WCI -14
SISSETON         N/A      3  -7  63 N23       30.27  WCI -19
ABERDEEN       MOSUNNY    2 -10  57 NW22G31   30.32R WCI -20
MITCHELL       SUNNY     11  -3  53 N21G32    30.34R WCI  -8
PIERRE         SUNNY      8  -4  58 NW18      30.32R WCI -11
MOBRIDGE       CLOUDY     6 -11  45 NW20G28   30.28R WCI -14
RAPID CITY     SUNNY     13   3  64 N22       30.21R WCI  -6
$$

  *****  SOME WEATHER IN NEARBY STATES *****

CITY           SKY/WX    TMP DP  RH WIND       PRES   REMARKS
GLASGOW MT     SUNNY      4  -9  55 NW7       30.29S WCI  -8
GREAT FALLS MT SUNNY     19   7  59 SW12      30.12F WCI   7
CHEYENNE WY    SUNNY     12  -2  53 SW9       30.06S WCI   0
SCOTTSBLUFF NE SUNNY     22  -2  35 NW18      30.19F WCI   7
OMAHA NE       MOSUNNY   26   5  40 NW10      30.30F WCI  16
DES MOINES IA  MOSUNNY   20   2  45 NW8       30.30S WCI  10
DAVENPORT IA   SUNNY     12   0  58 NW21      30.24R WCI  -7
CHICAGO IL     PTSUNNY   19   6  57 W13       30.12R WCI   6
EAU CLAIRE WI  SUNNY      6  -9  50 W13G26    30.18R WCI -10
LA CROSSE WI   SUNNY     12  -5  46 NW15G23   30.24R WCI  -4
$$

  *****  SOME NATIONAL WEATHER *****

CITY           SKY/WX    TMP DP  RH WIND       PRES   REMARKS
LA GUARDIA NY  CLOUDY    45  36  70 SW9       29.86F
RALEIGH NC     CLOUDY    57  54  89 SW17G26   29.99F FOG
ATLANTA GA     PTSUNNY   66  61  82 SW15G24   30.04F
NEW ORLEANS LA MOSUNNY   79  68  69 S13       29.99F
OKLAHOMA CITY  SLEET     26  20  77 N26G33    30.16R WCI  10
ALBUQUERQUE NM MOSUNNY   44  26  49 W6        29.98R
SALT LAKE CITY MOSUNNY   33  23  66 W7        30.20R
LOS ANGELES CA MOSUNNY   59  43  55 E5        30.08R
BOISE ID       SUNNY     31  16  54 CALM      30.28R
SEATTLE WA     SUNNY     39  21  48 CALM      30.30R
$$

*** WEATHER ACROSS MANITOBA...SASKATCHEWAN AND ONTARIO ***
                ***ONTARIO***

CITY           SKY/WX    TMP DP  RH WIND       PRES   REMARKS
GERALDTON      PTSUNNY   -4 -15  59 W9G18     29.82R DRFTSNOWWCI -20
THUNDER BAY    MOSUNNY    0 -17  46 NW15G28   30.00R WCI -20
SIOUX LOOKOUT  CRYSTALS  -9 -20  59 NW8G17    29.99R WCI -26
TORONTO        CLOUDY    32  19  59 W17       29.86F WCI  21
BIG TROUT LK   SUNNY     -9 -17  70 NW15      29.97R WCI -31
PICKLE LAKE    MOSUNNY   -4 -18  50 NW6       29.91R WCI -16
DRYDEN         SUNNY     -8 -18  59 W10G17    30.01R WCI -26
KENORA         CRYSTALS  -8 -17  65 NW10G17   30.07R WCI -26
$$
                *** MANITOBA***

CITY           SKY/WX    TMP DP  RH WIND       PRES   REMARKS
BRANDON        SUNNY     -9 -18  64 NW14      30.29R WCI -31
DAUPHIN        SUNNY     -9 -18  64 W13G18    30.31R WCI -30
ISLAND LAKE    MOSUNNY  -11 -18  70 W8        30.12S WCI -28
PILOT MOUND      N/A    -11 -18  70 NW15        N/A  WCI -34
THE PAS        SUNNY     -9 -18  64 W10       30.26F WCI -28
THOMPSON       SUNNY    -11 -22  58 W12       30.14S WCI -31
WINNIPEG       MOSUNNY   -6 -15  65 NW15      30.27R WCI -27
LYNN LAKE      SUNNY    -15 -24  64 W13       30.10F WCI -37
CHURCHILL      CRYSTALS -20 -27  69 NW16G22   30.03S WCI -46
GILLAM         MOSUNNY  -18 -26  69 W13G20    30.08S WCI -41
$$
                ***SASKATCHEWAN***

CITY           SKY/WX    TMP DP  RH WIND       PRES   REMARKS
ESTEVAN        SUNNY    -13 -22  64 NW13      30.33R WCI -34
KINDERSLEY     MOSUNNY   -4 -13  65 S12       30.22F WCI -22
LLOYDMINSTER   MOSUNNY   -4 -17  54 SW12      30.15F WCI -22
PRINCE ALBERT  SUNNY    -11 -20  64 SW6       30.30S WCI -25
REGINA         SUNNY    -15 -22  70 W6        30.32R WCI -29
YORKTON        SUNNY    -13 -22  64 W10       30.29R WCI -32
N. BATTLEFORD  SUNNY    -11 -18  70 VRB2      30.27F
LA RONGE       SUNNY     -9 -22  54 W8        30.26S WCI -26
SASKATOON      SUNNY    -15 -22  70 SW9       30.32S WCI -33
SWIFT CURRENT  SUNNY     -6 -13  71 SW8       30.20R WCI -21
$$
NOTE: THESE ARE AUTOMATED STATIONS WITH LIMITED QUALITY CONTROL
      "FAIR" INDICATES FEW OR NO CLOUDS BELOW 12,000 FEET WITH NO
      SIGNIFICANT WEATHER AND/OR OBSTRUCTIONS TO VISIBILITY.
      SKY/WX - SKY CONDITION AND SIGNIFICANT WEATHER.
      TMP - AIR TEMPERATURE.    DP   - DEWPOINT TEMPERATURE.
      RH  - RELATIVE HUMIDITY.  PRES - PRESSURE.
      HX  - HEAT INDEX.         WCI  - WIND CHILL INDEX.
$



USA.gov is the U.S. government's official web portal to all federal, state and local government web resources and services.